Weather History for Muskegon, MI

Change the Weather History Date:

Monday, February 25, 2013

  Actual Average Record
Temperature  
Mean Temperature 29 °F 29 °F  
Max Temperature 43 °F 36 °F 60 °F (2000)
Min Temperature 15 °F 23 °F -10 °F (1904)
Degree Days  
Heating Degree Days 36 36  
Month to date heating degree days 1016 955  
Since 1 July heating degree days 4329 4627  
Cooling Degree Days 0 0  
Month to date cooling degree days 0 0  
Year to date cooling degree days 0 0  
Moisture  
Dew Point 19 °F    
Average Humidity 66    
Maximum Humidity 88    
Minimum Humidity 43    
Precipitation  
Precipitation 0.00 in 0.08 in 1.39 in (1957)
Month to date precipitation 3.23 1.61  
Year to date precipitation 8.71 3.64  
Snow  
Snow 0.00 in 0.60 in 9.00 in (1935)
Month to date snowfall 46.4 17.8  
Since 1 July snowfall 86.0 80.9  
Snow Depth 9.00 in    
Sea Level Pressure  
Sea Level Pressure 30.17 in    
Wind  
Wind Speed 3 mph (ESE)    
Max Wind Speed 9 mph    
Max Gust Speed 12 mph    
Visibility 8 miles    
Events      
T = Trace of Precipitation, MM = Missing Value Source: NWS Daily Summary

Daily Weather History Graph

Daily Weather History Graph

Search for Another Location

Airport:

Trip Planner

Search our weather history database for the weather conditions in past years. The results will help you decide how hot, cold, wet, or windy it might be!

Date:

Astronomy

Feb. 25, 2013 Rise Set
Actual Time 7:27 AM EST 6:29 PM EST
Civil Twilight 6:58 AM EST 6:58 PM EST
Nautical Twilight 6:25 AM EST 7:31 PM EST
Astronomical Twilight 5:52 AM EST 8:04 PM EST
Moon 6:43 PM EST (2/25) 6:56 AM EST (2/25)
Length of Visible Light 11h 59m
Length of Day
11h 02m
Full, 100% of the Moon is Illuminated
Feb 25
Full
Feb 25
Full
Mar 4
Last Quarter
Mar 11
New
Mar 19
First Quarter

Hourly Weather History & Observations

Time (EST) Temp. Windchill Dew Point Humidity Pressure Visibility Wind Dir Wind Speed Gust Speed Precip Events Conditions
12:02 AM 19.4 °F - 17.6 °F 93% 30.15 in 1.8 mi Calm Calm - N/A   Clear
12:18 AM 19.4 °F - 15.8 °F 86% 30.15 in 3.0 mi Calm Calm - N/A   Clear
12:27 AM 19.4 °F - 15.8 °F 86% 30.15 in 2.5 mi Calm Calm - N/A   Clear
12:37 AM 19.4 °F - 15.8 °F 86% 30.15 in 4.0 mi Calm Calm - N/A   Clear
12:55 AM 19.9 °F - 16.0 °F 85% 30.19 in 7.0 mi Calm Calm - N/A   Clear
1:44 AM 19.4 °F - 15.8 °F 86% 30.16 in 2.0 mi Calm Calm - N/A   Partly Cloudy
1:55 AM 18.0 °F - 14.0 °F 84% 30.19 in 6.0 mi Calm Calm - N/A   Clear
2:55 AM 16.0 °F - 12.0 °F 84% 30.20 in 7.0 mi Calm Calm - N/A   Clear
3:55 AM 16.0 °F - 12.0 °F 84% 30.18 in 7.0 mi Calm Calm - N/A   Clear
4:55 AM 17.1 °F - 12.9 °F 84% 30.19 in 6.0 mi Calm Calm - N/A   Mostly Cloudy
5:55 AM 19.9 °F - 16.0 °F 85% 30.20 in 7.0 mi Calm Calm - N/A   Overcast
6:55 AM 23.0 °F - 19.0 °F 85% 30.20 in 7.0 mi Calm Calm - N/A   Overcast
7:55 AM 23.0 °F 17.0 °F 19.9 °F 88% 30.22 in 6.0 mi SE 4.6 mph - N/A   Overcast
8:55 AM 25.0 °F 18.1 °F 21.9 °F 88% 30.23 in 7.0 mi ESE 5.8 mph - N/A   Overcast
9:55 AM 28.0 °F 21.7 °F 24.1 °F 85% 30.22 in 8.0 mi ESE 5.8 mph - N/A   Overcast
10:55 AM 30.9 °F 27.5 °F 26.1 °F 82% 30.22 in 8.0 mi ESE 3.5 mph - N/A   Overcast
11:55 AM 34.0 °F 31.0 °F 25.0 °F 70% 30.21 in 10.0 mi East 3.5 mph - N/A   Scattered Clouds
12:55 PM 37.0 °F 33.3 °F 23.0 °F 57% 30.19 in 10.0 mi SE 4.6 mph - N/A   Scattered Clouds
1:55 PM 37.9 °F 34.4 °F 21.9 °F 53% 30.18 in 10.0 mi SE 4.6 mph - N/A   Scattered Clouds
2:55 PM 39.9 °F 37.8 °F 23.0 °F 51% 30.17 in 10.0 mi WNW 3.5 mph - N/A   Scattered Clouds
3:55 PM 43.0 °F - 21.9 °F 43% 30.14 in 10.0 mi Calm Calm - N/A   Scattered Clouds
4:55 PM 39.0 °F 34.0 °F 21.9 °F 50% 30.14 in 10.0 mi SE 6.9 mph - N/A   Clear
5:55 PM 36.0 °F - 21.9 °F 57% 30.14 in 10.0 mi Calm Calm - N/A   Clear
6:55 PM 34.0 °F - 21.9 °F 61% 30.14 in 10.0 mi Calm Calm - N/A   Clear
7:55 PM 30.9 °F - 21.9 °F 69% 30.15 in 10.0 mi Calm Calm - N/A   Clear
8:55 PM 32.0 °F 26.4 °F 21.0 °F 64% 30.13 in 10.0 mi ENE 5.8 mph - N/A   Clear
9:55 PM 30.9 °F 24.3 °F 21.0 °F 67% 30.12 in 10.0 mi NE 6.9 mph - N/A   Clear
10:55 PM 28.9 °F 21.1 °F 19.9 °F 69% 30.11 in 10.0 mi East 8.1 mph - N/A   Clear
11:55 PM 28.9 °F 23.9 °F 19.0 °F 67% 30.13 in 10.0 mi East 4.6 mph - N/A   Clear